NEWFOUND LAKE DAM: From 09/05/2020 05:00 to 09/20/2020 03:00

Date STAGE [FT] FLOW [CFS] LAKE ELEVATION [FT] PRECIPITATION INCREMENT [IN] AIR TEMPERATURE [DEGF]
09/19/2020 10:00 4.19 11.0 586.21 0.00 44.8
09/19/2020 09:00 4.19 11.0 586.22 0.00 41.3
09/19/2020 08:00 4.19 11.0 586.21 0.00 39.3
09/19/2020 07:00 4.19 11.0 586.21 0.00 39.4
09/19/2020 06:00 4.19 11.0 586.19 0.00 40.6
09/19/2020 05:00 4.19 11.0 586.23 0.00 44.6
09/19/2020 04:00 4.19 11.0 586.23 0.00 45.9
09/19/2020 03:00 4.19 11.0 586.22 0.00 46.5
09/19/2020 02:00 4.19 11.0 586.23 0.00 47.1
09/19/2020 01:00 4.19 11.0 586.24 0.00 46.9
09/19/2020 00:00 4.19 11.0 586.25 0.00 47.7
09/18/2020 23:00 4.19 11.0 586.26 0.00 48.9
09/18/2020 22:00 4.19 11.0 586.28 0.00 50.4
09/18/2020 21:00 4.19 11.0 586.31 0.00 52.6
09/18/2020 20:00 4.19 11.0 586.31 0.00 55.1
09/18/2020 19:00 4.19 11.0 586.29 0.00 57.7
09/18/2020 18:00 4.19 11.0 586.29 0.00 59.9
09/18/2020 17:00 4.19 11.0 586.30 0.00 61.4
09/18/2020 16:00 4.19 11.0 586.28 0.00 62.3
09/18/2020 15:00 4.19 11.0 586.29 0.00 62.6
09/18/2020 14:00 4.19 11.0 586.26 0.00 60.6
09/18/2020 13:00 4.19 11.0 586.26 0.00 59.1
09/18/2020 12:00 4.19 11.0 586.25 0.00 53.8
09/18/2020 11:00 4.19 11.0 586.25 0.00 51.5
09/18/2020 10:00 4.19 11.0 586.25 0.01 51.5
09/18/2020 09:00 4.19 11.0 586.26 0.00 51.6
09/18/2020 08:00 4.19 11.0 586.26 0.00 52.2
09/18/2020 07:00 4.19 11.0 586.26 0.01 52.3
09/18/2020 06:00 4.19 11.0 586.25 0.01 52.8
09/18/2020 05:00 4.19 11.0 586.25 0.03 53.9
09/18/2020 04:00 4.19 11.0 586.25 0.02 54.7
09/18/2020 03:00 4.19 11.0 586.26 0.04 55.4
09/18/2020 02:00 4.19 11.0 586.25 0.01 55.5
09/18/2020 01:00 4.19 11.0 586.25 0.01 55.1
09/18/2020 00:00 4.19 11.0 586.24 0.00 55.7
09/17/2020 23:00 4.19 11.0 586.26 0.00 58.4
09/17/2020 22:00 4.19 11.0 586.27 0.00 59.5
09/17/2020 21:00 4.19 11.0 586.28 0.00 60.1
09/17/2020 20:00 4.19 11.0 586.26 0.00 60.1
09/17/2020 19:00 4.19 11.0 586.25 0.00 60.5
09/17/2020 18:00 4.19 11.0 586.27 0.00 60.8
09/17/2020 17:00 4.19 11.0 586.28 0.00 61.8
09/17/2020 16:00 4.19 11.0 586.29 0.00 63.2
09/17/2020 15:00 4.19 11.0 586.29 0.00 65.7
09/17/2020 14:00 4.19 11.0 586.27 0.00 66.5
09/17/2020 13:00 4.19 11.0 586.27 0.00 66.0
09/17/2020 12:00 4.19 11.0 586.28 0.00 63.0
09/17/2020 11:00 4.19 11.0 586.27 0.00 58.4
09/17/2020 10:00 4.19 11.0 586.26 0.00 55.1
09/17/2020 09:00 4.19 11.0 586.27 0.00 50.4
09/17/2020 08:00 4.19 11.0 586.27 0.00 48.1
09/17/2020 07:00 4.19 11.0 586.25 0.00 48.7
09/17/2020 06:00 4.19 11.0 586.24 0.00 50.0
09/17/2020 05:00 4.19 11.0 586.28 0.00 50.7
09/17/2020 04:00 4.19 11.0 586.28 0.00 51.7
09/17/2020 03:00 4.19 11.0 586.27 0.00 53.2
09/17/2020 02:00 4.19 11.0 586.27 0.00 54.8
09/17/2020 01:00 4.19 11.0 586.29 0.00 58.0
09/17/2020 00:00 4.20 11.0 586.26 0.00 56.4
09/16/2020 23:00 4.19 11.0 586.27 0.00 57.1
09/16/2020 22:00 4.19 11.0 586.27 0.00 58.5
09/16/2020 21:00 4.19 11.0 586.27 0.00 60.5
09/16/2020 20:00 4.20 11.0 586.25 0.00 63.3
09/16/2020 19:00 4.20 11.0 586.28 0.00 67.3
09/16/2020 18:00 4.20 11.0 586.26 0.00 70.9
09/16/2020 17:00 4.20 11.0 586.27 0.00 72.4
09/16/2020 16:00 4.19 11.0 586.25 0.00 72.9
09/16/2020 15:00 4.19 11.0 586.27 0.00 72.0
09/16/2020 14:00 4.19 11.0 586.29 0.00 70.4
09/16/2020 13:00 4.19 11.0 586.26 0.00 67.1
09/16/2020 12:00 4.19 11.0 586.29 0.00 62.0
09/16/2020 11:00 4.19 11.0 586.30 0.00 53.8
09/16/2020 10:00 4.19 11.0 586.29 0.00 46.0
09/16/2020 09:00 4.19 11.0 586.29 0.00 41.0
09/16/2020 08:00 4.19 11.0 586.26 0.00 39.3
09/16/2020 07:00 4.19 11.0 586.26 0.00 40.1
09/16/2020 06:00 4.19 11.0 586.29 0.00 40.5
09/16/2020 05:00 4.19 11.0 586.28 0.00 40.7
09/16/2020 04:00 4.19 11.0 586.29 0.00 41.6
09/16/2020 03:00 4.19 11.0 586.29 0.00 42.9
09/16/2020 02:00 4.19 11.0 586.28 0.00 43.7
09/16/2020 01:00 4.19 11.0 586.29 0.00 44.3
09/16/2020 00:00 4.19 11.0 586.29 0.00 45.7
09/15/2020 23:00 4.19 11.0 586.31 0.00 47.0
09/15/2020 22:00 4.19 11.0 586.29 0.00 49.0
09/15/2020 21:00 4.19 11.0 586.29 0.00 50.6
09/15/2020 20:00 4.19 11.0 586.31 0.00 53.6
09/15/2020 19:00 4.19 11.0 586.31 0.00 59.1
09/15/2020 18:00 4.20 11.0 586.30 0.00 62.6
09/15/2020 17:00 4.19 11.0 586.31 0.00 62.7
09/15/2020 16:00 4.19 11.0 586.30 0.00 62.6
09/15/2020 15:00 4.19 11.0 586.31 0.00 62.0
09/15/2020 14:00 4.19 11.0 586.30 0.00 60.5
09/15/2020 13:00 4.19 11.0 586.31 0.00 58.4
09/15/2020 12:00 4.19 11.0 586.32 0.00 56.6
09/15/2020 11:00 4.14 11.0 586.31 0.00 53.1
09/15/2020 10:00 4.14 11.0 586.30 0.00 48.4
09/15/2020 09:00 4.14 11.0 586.31 0.00 43.5
09/15/2020 08:00 4.14 11.0 586.32 0.00 42.1
09/15/2020 07:00 4.14 11.0 586.31 0.00 45.8
09/15/2020 06:00 4.14 11.0 586.33 0.00 48.5
09/15/2020 05:00 4.14 11.0 586.33 0.00 49.4
09/15/2020 04:00 4.14 11.0 586.32 0.00 49.1
09/15/2020 03:00 4.14 11.0 586.32 0.00 50.6
09/15/2020 02:00 4.15 11.0 586.35 0.00 51.6
09/15/2020 01:00 4.14 11.0 586.32 0.00 52.6
09/15/2020 00:00 4.14 11.0 586.33 0.00 52.6
09/14/2020 23:00 4.15 11.0 586.30 0.00 53.0
09/14/2020 22:00 4.15 11.0 586.36 0.00 53.8
09/14/2020 21:00 4.14 11.0 586.33 0.00 54.8
09/14/2020 20:00 4.15 11.0 586.34 0.00 56.2
09/14/2020 19:00 4.15 11.0 586.40 0.00 58.7
09/14/2020 18:00 4.15 11.0 586.38 0.00 61.2
09/14/2020 17:00 4.15 11.0 586.37 0.00 63.5
09/14/2020 16:00 4.15 11.0 586.39 0.00 65.2
09/14/2020 15:00 4.15 11.0 586.42 0.00 66.0
09/14/2020 14:00 4.15 11.0 586.40 0.00 66.2
09/14/2020 13:00 4.15 11.0 586.40 0.00 67.0
09/14/2020 12:00 4.15 11.0 586.36 0.00 65.5
09/14/2020 11:00 4.15 11.0 586.35 0.00 64.4
09/14/2020 10:00 4.15 11.0 586.39 0.00 63.8
09/14/2020 09:00 4.15 11.0 586.36 0.00 64.0
09/14/2020 08:00 4.15 11.0 586.35 0.00 63.9
09/14/2020 07:00 4.15 11.0 586.39 0.00 65.2
09/14/2020 06:00 4.15 11.0 586.38 0.00 63.0
09/14/2020 05:00 4.15 11.0 586.37 0.00 63.2
09/14/2020 04:00 4.15 11.0 586.38 0.00 63.6
09/14/2020 03:00 4.15 11.0 586.36 0.00 63.5
09/14/2020 02:00 4.15 11.0 586.35 0.00 63.6
09/14/2020 01:00 4.15 11.0 586.37 0.00 63.5
09/14/2020 00:00 4.15 11.0 586.37 0.00 64.5
09/13/2020 23:00 4.15 11.0 586.36 0.00 65.0
09/13/2020 22:00 4.15 11.0 586.35 0.00 65.6
09/13/2020 21:00 4.15 11.0 586.38 0.00 67.2
09/13/2020 20:00 4.15 11.0 586.35 0.00 68.2
09/13/2020 19:00 4.15 11.0 586.34 0.00 69.7
09/13/2020 18:00 4.15 11.0 586.33 0.00 72.1
09/13/2020 17:00 4.15 11.0 586.36 0.00 72.4
09/13/2020 16:00 4.15 11.0 586.37 0.00 70.8
09/13/2020 15:00 4.15 11.0 586.36 0.00 70.0
09/13/2020 14:00 4.15 11.0 586.35 0.00 68.0
09/13/2020 13:00 4.15 11.0 586.35 0.00 65.1
09/13/2020 12:00 4.15 11.0 586.34 0.00 60.7
09/13/2020 11:00 4.15 11.0 586.37 0.00 56.0
09/13/2020 10:00 4.15 11.0 586.37 0.00 50.5
09/13/2020 09:00 4.15 11.0 586.38 0.00 46.7
09/13/2020 08:00 4.15 11.0 586.38 0.00 45.1
09/13/2020 07:00 4.15 11.0 586.36 0.00 45.1
09/13/2020 06:00 4.15 11.0 586.36 0.00 45.8
09/13/2020 05:00 4.15 11.0 586.36 0.00 46.8
09/13/2020 04:00 4.15 11.0 586.37 0.00 47.3
09/13/2020 03:00 4.15 11.0 586.37 0.00 48.3
09/13/2020 02:00 4.15 11.0 586.36 0.00 49.6
09/13/2020 01:00 4.15 11.0 586.37 0.00 50.6
09/13/2020 00:00 4.15 11.0 586.38 0.00 51.6
09/12/2020 23:00 4.15 11.0 586.38 0.00 54.3
09/12/2020 22:00 4.15 11.0 586.38 0.00 57.1
09/12/2020 21:00 4.15 11.0 586.37 0.00 58.1
09/12/2020 20:00 4.15 11.0 586.39 0.00 61.3
09/12/2020 19:00 4.15 11.0 586.38 0.00 64.5
09/12/2020 18:00 4.15 11.0 586.37 0.00 68.6
09/12/2020 17:00 4.15 11.0 586.38 0.00 69.4
09/12/2020 16:00 4.15 11.0 586.39 0.00 67.8
09/12/2020 15:00 4.15 11.0 586.37 0.00 67.0
09/12/2020 14:00 4.15 11.0 586.37 0.00 66.0
09/12/2020 13:00 4.15 11.0 586.39 0.00 64.4
09/12/2020 12:00 4.15 11.0 586.40 0.00 62.0
09/12/2020 11:00 4.15 11.0 586.38 0.00 54.5
09/12/2020 10:00 4.15 11.0 586.39 0.00 49.4
09/12/2020 09:00 4.15 11.0 586.39 0.00 45.7
09/12/2020 08:00 4.15 11.0 586.39 0.00 43.3
09/12/2020 07:00 4.15 11.0 586.39 0.00 42.1
09/12/2020 06:00 4.15 11.0 586.38 0.00 42.8
09/12/2020 05:00 4.15 11.0 586.39 0.00 43.6
09/12/2020 04:00 4.15 11.0 586.39 0.00 44.8
09/12/2020 03:00 4.15 11.0 586.38 0.00 45.9
09/12/2020 02:00 4.15 11.0 586.38 0.00 47.0
09/12/2020 01:00 4.15 11.0 586.40 0.00 48.5
09/12/2020 00:00 4.15 11.0 586.42 0.00 51.6
09/11/2020 23:00 4.15 11.0 586.41 0.00 54.6
09/11/2020 22:00 4.15 11.0 586.42 0.00 56.7
09/11/2020 21:00 4.15 11.0 586.43 0.00 59.4
09/11/2020 20:00 4.15 11.0 586.42 0.00 60.6
09/11/2020 19:00 4.15 11.0 586.43 0.00 62.7
09/11/2020 18:00 4.15 11.0 586.43 0.00 65.3
09/11/2020 17:00 4.16 11.0 586.43 0.00 65.8
09/11/2020 16:00 4.15 11.0 586.45 0.00 65.8
09/11/2020 15:00 4.15 11.0 586.44 0.00 64.3
09/11/2020 14:00 4.15 11.0 586.46 0.00 63.1
09/11/2020 13:00 4.15 11.0 586.43 0.00 62.0
09/11/2020 12:00 4.15 11.0 586.45 0.00 61.6
09/11/2020 11:00 4.15 11.0 586.45 0.00 58.6
09/11/2020 10:00 4.15 11.0 586.47 0.00 57.0
09/11/2020 09:00 4.15 11.0 586.47 0.00 56.9
09/11/2020 08:00 4.15 11.0 586.46 0.00 57.7
09/11/2020 07:00 4.15 11.0 586.47 0.00 59.1
09/11/2020 06:00 4.16 11.0 586.42 0.00 60.9
09/11/2020 05:00 4.16 11.0 586.47 0.00 61.7
09/11/2020 04:00 4.16 11.0 586.45 0.00 62.3
09/11/2020 03:00 4.16 11.0 586.49 0.00 63.4
09/11/2020 02:00 4.16 11.0 586.47 0.00 65.3
09/11/2020 01:00 4.16 11.0 586.49 0.00 67.4
09/11/2020 00:00 4.16 11.0 586.46 0.00 69.3
09/10/2020 23:00 4.16 11.0 586.47 0.00 71.9
09/10/2020 22:00 4.16 11.0 586.44 0.00 70.2
09/10/2020 21:00 4.16 11.0 586.44 0.00 71.3
09/10/2020 20:00 4.16 11.0 586.44 0.00 73.8
09/10/2020 19:00 4.16 11.0 586.45 0.00 78.3
09/10/2020 18:00 4.16 11.0 586.43 0.00 79.5
09/10/2020 17:00 4.16 11.0 586.42 0.00 77.3
09/10/2020 16:00 4.16 11.0 586.45 0.00 81.1
09/10/2020 15:00 4.16 11.0 586.44 0.00 78.9
09/10/2020 14:00 4.16 11.0 586.43 0.00 80.0
09/10/2020 13:00 4.16 11.0 586.46 0.00 78.5
09/10/2020 12:00 4.16 11.0 586.46 0.00 72.6
09/10/2020 11:00 4.16 11.0 586.44 0.00 66.2
09/10/2020 10:00 4.16 11.0 586.44 0.00 63.7
09/10/2020 09:00 4.16 11.0 586.42 0.00 62.0
09/10/2020 08:00 4.16 11.0 586.43 0.00 61.2
09/10/2020 07:00 4.16 11.0 586.46 0.00 61.3
09/10/2020 06:00 4.16 11.0 586.45 0.00 61.7
09/10/2020 05:00 4.16 11.0 586.46 0.00 61.6
09/10/2020 04:00 4.16 11.0 586.44 0.00 61.6
09/10/2020 03:00 4.16 11.0 586.44 0.00 62.2
09/10/2020 02:00 4.16 11.0 586.45 0.00 63.2
09/10/2020 01:00 4.16 11.0 586.46 0.00 64.3
09/10/2020 00:00 4.16 11.0 586.47 0.00 65.1
09/09/2020 23:00 4.16 11.0 586.45 0.00 66.4
09/09/2020 22:00 4.16 11.0 586.47 0.00 68.3
09/09/2020 21:00 4.16 11.0 586.47 0.00 70.7
09/09/2020 20:00 4.16 11.0 586.46 0.00 74.5
09/09/2020 19:00 4.16 11.0 586.44 0.00 77.8
09/09/2020 18:00 4.16 11.0 586.45 0.00 80.5
09/09/2020 17:00 4.16 11.0 586.45 0.00 81.2
09/09/2020 16:00 4.16 11.0 586.45 0.00 82.5
09/09/2020 15:00 4.16 11.0 586.45 0.00 84.0
09/09/2020 14:00 4.16 11.0 586.47 0.00 82.7
09/09/2020 13:00 4.16 11.0 586.48 0.00 81.0
09/09/2020 12:00 4.16 11.0 586.45 0.00 74.9
09/09/2020 11:00 4.16 11.0 586.45 0.00 68.9
09/09/2020 10:00 4.16 11.0 586.46 0.00 65.0
09/09/2020 09:00 4.16 11.0 586.47 0.00 63.2
09/09/2020 08:00 4.16 11.0 586.46 0.00 62.6
09/09/2020 07:00 4.16 11.0 586.44 0.00 61.4
09/09/2020 06:00 4.16 11.0 586.46 0.00 61.5
09/09/2020 05:00 4.16 11.0 586.46 0.00 62.1
09/09/2020 04:00 4.16 11.0 586.46 0.00 62.9
09/09/2020 03:00 4.16 11.0 586.46 0.00 63.8
09/09/2020 02:00 4.16 11.0 586.47 0.00 64.8
09/09/2020 01:00 4.16 11.0 586.47 0.00 65.1
09/09/2020 00:00 4.16 11.0 586.46 0.00 65.9
09/08/2020 23:00 4.16 11.0 586.47 0.00 66.8
09/08/2020 22:00 4.16 11.0 586.48 0.00 68.6
09/08/2020 21:00 4.16 11.0 586.47 0.00 69.9
09/08/2020 20:00 4.16 11.0 586.46 0.00 73.0
09/08/2020 19:00 4.16 11.0 586.47 0.00 76.8
09/08/2020 18:00 4.16 11.0 586.47 0.00 81.6
09/08/2020 17:00 4.16 11.0 586.45 0.00 81.1
09/08/2020 16:00 4.16 11.0 586.46 0.00 79.1
09/08/2020 15:00 4.16 11.0 586.47 0.00 81.5
09/08/2020 14:00 4.16 11.0 586.46 0.00 79.6
09/08/2020 13:00 4.16 11.0 586.47 0.00 77.7
09/08/2020 12:00 4.16 11.0 586.48 0.00 74.3
09/08/2020 11:00 4.16 11.0 586.46 0.00 66.7
09/08/2020 10:00 4.16 11.0 586.46 0.00 61.9
09/08/2020 09:00 4.16 11.0 586.47 0.00 58.8
09/08/2020 08:00 4.16 11.0 586.46 0.00 56.9
09/08/2020 07:00 4.16 11.0 586.46 0.00 57.2
09/08/2020 06:00 4.16 11.0 586.46 0.00 57.8
09/08/2020 05:00 4.16 11.0 586.46 0.00 58.5
09/08/2020 04:00 4.16 11.0 586.46 0.00 58.9
09/08/2020 03:00 4.16 11.0 586.46 0.00 60.2
09/08/2020 02:00 4.16 11.0 586.47 0.00 61.5
09/08/2020 01:00 4.16 11.0 586.51 0.00 63.5
09/08/2020 00:00 4.16 11.0 586.48 0.00 65.7
09/07/2020 23:00 4.16 11.0 586.45 0.00 67.7
09/07/2020 22:00 4.16 11.0 586.48 0.00 69.0
09/07/2020 21:00 4.16 11.0 586.48 0.00 70.8
09/07/2020 20:00 4.16 11.0 586.47 0.00 72.1
09/07/2020 19:00 4.16 11.0 586.46 0.00 73.0
09/07/2020 18:00 4.16 11.0 586.46 0.00 75.6
09/07/2020 17:00 4.16 11.0 586.43 0.00 77.6
09/07/2020 16:00 4.16 11.0 586.50 0.00 78.5
09/07/2020 15:00 4.16 11.0 586.44 0.00 79.4
09/07/2020 14:00 4.16 11.0 586.44 0.00 77.2
09/07/2020 13:00 4.16 11.0 586.42 0.00 73.3
09/07/2020 12:00 4.16 11.0 586.47 0.00 70.4
09/07/2020 11:00 4.16 11.0 586.48 0.00 66.0
09/07/2020 10:00 4.16 11.0 586.48 0.00 61.4
09/07/2020 09:00 4.16 11.0 586.47 0.00 56.7
09/07/2020 08:00 4.16 11.0 586.47 0.00 55.1
09/07/2020 07:00 4.16 11.0 586.47 0.00 53.6
09/07/2020 06:00 4.16 11.0 586.49 0.00 54.1
09/07/2020 05:00 4.16 11.0 586.49 0.00 54.1
09/07/2020 04:00 4.16 11.0 586.48 0.00 52.5
09/07/2020 03:00 4.16 11.0 586.49 0.00 53.2
09/07/2020 02:00 4.16 11.0 586.49 0.00 51.4
09/07/2020 01:00 4.16 11.0 586.49 0.00 52.9
09/07/2020 00:00 4.16 11.0 586.50 0.00 54.1
09/06/2020 23:00 4.16 11.0 586.49 0.00 55.9
09/06/2020 22:00 4.16 11.0 586.50 0.00 58.8
09/06/2020 21:00 4.16 11.0 586.50 0.00 60.5
09/06/2020 20:00 4.16 11.0 586.50 0.00 63.8
09/06/2020 19:00 4.16 11.0 586.50 0.00 68.5
09/06/2020 18:00 4.16 11.0 586.51 0.00 74.8
09/06/2020 17:00 4.16 11.0 586.51 0.00 74.3
09/06/2020 16:00 4.16 11.0 586.51 0.00 73.6
09/06/2020 15:00 4.16 11.0 586.51 0.00 74.4
09/06/2020 14:00 4.16 11.0 586.52 0.00 71.3
09/06/2020 13:00 4.16 11.0 586.52 0.00 71.1
09/06/2020 12:00 4.16 11.0 586.52 0.00 69.0
09/06/2020 11:00 4.16 11.0 586.50 0.00 64.7
09/06/2020 10:00 4.16 11.0 586.48 0.00 59.5
09/06/2020 09:00 4.16 11.0 586.49 0.00 54.6
09/06/2020 08:00 4.16 11.0 586.50 0.00 53.3
09/06/2020 07:00 4.16 11.0 586.51 0.00 53.4
09/06/2020 06:00 4.16 11.0 586.49 0.00 54.3
09/06/2020 05:00 4.16 11.0 586.49 0.00 54.5
09/06/2020 04:00 4.16 11.0 586.50 0.00 54.0
09/06/2020 03:00 4.16 11.0 586.50 0.00 53.6
09/06/2020 02:00 4.16 11.0 586.51 0.00 55.2
09/06/2020 01:00 4.16 11.0 586.51 0.00 58.2
09/06/2020 00:00 4.16 11.0 586.50 0.00 59.8
09/05/2020 23:00 4.16 11.0 586.51 0.00 61.1
09/05/2020 22:00 4.16 11.0 586.51 0.00 62.0
09/05/2020 21:00 -- -- -- -- --
09/05/2020 20:00 -- -- -- -- --
09/05/2020 19:00 -- -- -- -- --
09/05/2020 18:00 -- -- -- -- --
09/05/2020 17:00 -- -- -- -- --
09/05/2020 16:00 -- -- -- -- --
09/05/2020 15:00 -- -- -- -- --
09/05/2020 14:00 -- -- -- -- --
09/05/2020 13:00 -- -- -- -- --
09/05/2020 12:00 -- -- -- -- --
09/05/2020 11:00 -- -- -- -- --
09/05/2020 10:00 -- -- -- -- --
09/05/2020 09:00 -- -- -- -- --
09/05/2020 08:00 -- -- -- -- --
09/05/2020 07:00 -- -- -- -- --
09/05/2020 06:00 -- -- -- -- --
09/05/2020 05:00 -- -- -- -- --